Location: New Plymouth
(39.0670°S, 174.0830°E)
Time: 16:54:53
(UTC+13:00)

NOSS 3-2 (C) - Pass Details

Date: 24 January 2019
Orbit: 839 x 1373 km, 63.4° (Epoch: 17 February)

Event Time Altitude Azimuth Distance (km) Brightness Sun altitude
Exits shadow 23:03:16 35° 37° (NE) 2,013 4.6 -21.7°
Maximum altitude 23:05:16 40° 67° (ENE) 1,848 4.5 -21.9°
Drops below altitude 10° 23:12:24 10° 132° (SE) 3,194 6.2 -22.8°
Sets 23:15:13 0° 139° (SE) 4,089 6.9 -23.1°
